Location: Brachbach
(49.1847°N, 9.7240°E)
Time: 13:13:19
(UTC+00:00)

CZ-2C R/B - Pass Details

Date: 08 August 2024
Orbit: 782 x 869 km, 98.3° (Epoch: 15 September)

Event Time Altitude Azimuth Distance (km) Brightness Sun altitude
Exits shadow 03:09:28 - 255° (WSW) 2,649 4.7 -8.4°
Reaches altitude 10° 03:11:22 10° 274° (W) 2,489 4.7 -8.1°
Maximum altitude 03:11:43 10° 277° (W) 2,485 4.7 -8.1°
Drops below altitude 10° 03:12:03 10° 281° (W) 2,488 4.7 -8.0°
Sets 03:17:35 0° 327° (NNW) 3,405 5.9 -7.3°
